Find Starlink 32527

NORAD ID: 62319 Int'l Des: 2024-239 Owner: SPXS Country: US Constellation: starlink operational
LEOCIRCULAR

当前视图

正在加载3D地球...

About Starlink 32527

Starlink 32527 (NORAD 62319) is a starlink constellation satellite (v2 mini) launched Dec 13, 2024 by SPXS of US. It operates in LEO, CIRCULAR orbit with a mass of 730.00 kg.

即将过境

Passes for default location (London). Set your location on the main map for personalized predictions.

高度历史

Loading altitude history...

两行轨道根数

1 62319U 24239U 26235.40199864 .00011276 00000-0 37444-3 0 9992
2 62319 53.1579 125.6857 0001212 89.1848 270.9292 15.31712855 95105
Epoch: Aug 23, 2026 • Age: 20 hours

当前状态

高度 485.6 km
远地点 / 近地点 N/A
速度 7.62 km/s
星下点 -42.57°S, 69.57°W
发射日期 Dec 13, 2024
运行时间 1.6 years
类型 internet

技术详情

分类 Payload
质量 730.00 kg
干质量 700.00 kg
总质量 730.00 kg
长度 0.30 m
直径 4.10 m
跨度 29.00 m
形状 Box + pan
制造商 SPXS
平台类型 Starlink V2M
阶段状态 In Orbit
所有者/国家 SPXS/US

Most Searched